This is the latest recevied weather packets stored in our database for station/object KD0RIH. If no packets are shown the sender has not sent any weather packets the latest 10 day(s).
| Time | Temp. | Humidity | Pressure | Rain* | Wind** | Luminosity | Snow |
|---|---|---|---|---|---|---|---|
| 1777959951 | 15.56° C | 37% | 1007.4 hPa | 0 mm | - | 0 W/m² | - |
| 1777959649 | 15.56° C | 36% | 1007.1 hPa | 0 mm | - | 0 W/m² | - |
| 1777959345 | 15.56° C | 37% | 1006.9 hPa | 0 mm | - | 0 W/m² | - |
| 1777959042 | 15.56° C | 37% | 1006.5 hPa | 0 mm | - | 0 W/m² | - |
| 1777958739 | 15.56° C | 36% | 1006.6 hPa | 0 mm | - | 0 W/m² | - |
| 1777958437 | 16.11° C | 36% | 1006.8 hPa | 0 mm | - | 0 W/m² | - |
| 1777958133 | 16.11° C | 36% | 1006.4 hPa | 0 mm | - | 0 W/m² | - |
| 1777957832 | 16.11° C | 36% | 1006.2 hPa | 0 mm | - | 0 W/m² | - |
| 1777957530 | 16.67° C | 36% | 1006.1 hPa | 0 mm | - | 0 W/m² | - |
| 1777957227 | 16.67° C | 36% | 1005.6 hPa | 0 mm | - | 0 W/m² | - |
| 1777956923 | 17.22° C | 36% | 1005.3 hPa | 0 mm | - | 0 W/m² | - |
| 1777956620 | 17.22° C | 36% | 1004.9 hPa | 0 mm | - | 0 W/m² | - |
| 1777956318 | 17.78° C | 36% | 1004.8 hPa | 0 mm | - | 0 W/m² | - |
| 1777956014 | 17.78° C | 36% | 1005.1 hPa | 0 mm | - | 0 W/m² | - |
| 1777955710 | 17.78° C | 35% | 1004.7 hPa | 0 mm | - | 0 W/m² | - |
| 1777955407 | 18.33° C | 34% | 1004.7 hPa | 0 mm | - | 0 W/m² | - |
| 1777955103 | 18.33° C | 34% | 1004.6 hPa | 0 mm | - | 0 W/m² | - |
| 1777954801 | 18.33° C | 34% | 1004.5 hPa | 0 mm | - | 0 W/m² | - |
| 1777954497 | 18.89° C | 33% | 1004.4 hPa | 0 mm | - | 0 W/m² | - |
| 1777954194 | 18.89° C | 34% | 1004.3 hPa | 0 mm | - | 0 W/m² | - |
| 1777953892 | 19.44° C | 33% | 1004.3 hPa | 0 mm | - | 0 W/m² | - |
| 1777953588 | 19.44° C | 33% | 1004.5 hPa | 0 mm | - | 0 W/m² | - |
| 1777953284 | 19.44° C | 34% | 1004.3 hPa | 0 mm | - | 0 W/m² | - |
| 1777952982 | 20° C | 35% | 1004.3 hPa | 0 mm | - | 0 W/m² | - |
| 1777952678 | 20° C | 34% | 1004.3 hPa | 0 mm | - | 0 W/m² | - |
* Rain latest hour (hover to see other rain measurements)
** Current wind speed in m/s (hover to see current wind gust speed)